This demonstration page uses our WeatherBlox Daily Observations layout. Learn more.

Left ArrowRight Arrow

36.17497, -115.13722

Hourly Observations for February 13, 2019

Temp ( °F °C ) Dew Point ( °F °C ) Humidity (%) Winds ( mph kmh ) Pressure ( in mb ) Visibility ( mi km ) Precip ( " mm )
12:53 am 00:53 Clear 42 5.6 23 -5 47 47 SW 5 7 30.09 1019 10 16 0.00 0.00
1:53 am 01:53 Clear 41 5 24 -4.4 51 51 NE 3 6 30.08 1019 10 16 0.00 0.00
2:53 am 02:53 Clear 41 5 24 -4.4 51 51 Calm 30.06 1018 10 16 0.00 0.00
3:53 am 03:53 Clear 41 5 24 -4.4 51 51 WSW 3 6 30.04 1017 10 16 0.00 0.00
4:53 am 04:53 Clear 42 5.6 24 -4.4 49 49 SSW 5 7 30.02 1017 10 16 0.00 0.00
5:53 am 05:53 Partly Cloudy 42 5.6 23 -5 47 47 Calm 30.01 1016 10 16 0.00 0.00
6:53 am 06:53 Cloudy 44 6.7 23 -5 43 43 W 6 9 30.02 1017 10 16 0.00 0.00
7:53 am 07:53 Cloudy 45 7.2 24 -4.4 44 44 Calm 30.01 1016 10 16 0.00 0.00
8:53 am 08:53 Mostly Cloudy 47 8.3 25 -3.9 42 42 Calm 30.01 1016 10 16 0.00 0.00
9:53 am 09:53 Cloudy 48 8.9 23 -5 37 37 SSE 5 7 30.00 1016 10 16 0.00 0.00
10:53 am 10:53 Partly Cloudy 49 9.4 23 -5 36 36 E 6 9 29.98 1015 10 16 0.00 0.00
11:53 am 11:53 Cloudy 52 11.1 21 -6.1 30 30 ENE 7 11 29.96 1014 10 16 0.00 0.00
12:53 pm 12:53 Cloudy 53 11.7 24 -4.4 32 32 SE 6 9 29.94 1014 10 16 0.00 0.03
1:53 pm 13:53 Cloudy with Light Rain 53 11.7 27 -2.8 37 37 SE 8 13 29.93 1014 10 16 0.00 0.03
2:53 pm 14:53 Cloudy 55 12.8 30 -1.1 38 38 S 12 19 29.92 1013 10 16 0.00 0.03
3:53 pm 15:53 Cloudy 54 12.2 29 -1.7 38 38 ESE 13 20 29.92 1013 10 16 0.00 0.00
4:53 pm 16:53 Partly Cloudy 52 11.1 28 -2.2 40 40 SE 12 19 29.92 1013 10 16 0.00 0.00
5:53 pm 17:53 Mostly Cloudy 51 10.6 26 -3.3 38 38 E 15 24 29.92 1013 10 16 0.00 0.00
6:53 pm 18:53 Clear 50 10 25 -3.9 38 38 E 12 19 29.94 1014 10 16 0.00 0.00
7:53 pm 19:53 Clear 49 9.4 25 -3.9 39 39 E 3 6 29.93 1014 10 16 0.00 0.00
8:53 pm 20:53 Cloudy 49 9.4 26 -3.3 41 41 NNW 5 7 29.93 1014 10 16 0.00 0.00
9:53 pm 21:53 Cloudy 50 10 25 -3.9 38 38 Calm 29.93 1014 10 16 0.00 0.00
10:53 pm 22:53 Cloudy 50 10 26 -3.3 39 39 NNW 5 7 29.92 1013 10 16 0.00 0.00
11:53 pm 23:53 Partly Cloudy 50 10 25 -3.9 38 38 NNE 5 7 29.91 1013 10 16 0.00 0.00

Powered by AerisWeather